Weather History for Benton Harbor, MI

Change the Weather History Date:

Thursday, February 21, 2013

  Actual Average Record
Temperature  
Mean Temperature 24 °F -  
Max Temperature 26 °F 39 °F 61 °F (1983)
Min Temperature 21 °F 22 °F 1 °F (1963)
Degree Days  
Heating Degree Days 42    
Moisture  
Dew Point 17 °F    
Average Humidity 73    
Maximum Humidity 78    
Minimum Humidity 69    
Precipitation  
Precipitation 0.00 in - - ()
Sea Level Pressure  
Sea Level Pressure 30.30 in    
Wind  
Wind Speed 7 mph (East)    
Max Wind Speed 21 mph    
Max Gust Speed 33 mph    
Visibility 10 miles    
Events      
Averages and records for this station are not official NWS values.
T = Trace of Precipitation, MM = Missing Value Source: NWS Daily Summary

Daily Weather History Graph

Daily Weather History Graph

Search for Another Location

Airport:

Trip Planner

Search our weather history database for the weather conditions in past years. The results will help you decide how hot, cold, wet, or windy it might be!

Date:

Astronomy

Feb. 21, 2013 Rise Set
Actual Time 7:32 AM EST 6:26 PM EST
Civil Twilight 7:04 AM EST 6:54 PM EST
Nautical Twilight 6:31 AM EST 7:27 PM EST
Astronomical Twilight 5:59 AM EST 7:59 PM EST
Moon 2:38 PM EST (2/21) 4:39 AM EST (2/21)
Length of Visible Light 11h 50m
Length of Day
10h 53m
Waxing Gibbous, 83% of the Moon is Illuminated
Feb 21
Waxing Gibbous
Feb 25
Full
Mar 4
Last Quarter
Mar 11
New
Mar 19
First Quarter

Hourly Weather History & Observations

Time (EST) Temp. Windchill Dew Point Humidity Pressure Visibility Wind Dir Wind Speed Gust Speed Precip Events Conditions
12:53 AM 26.1 °F 20.5 °F 17.1 °F 69% 30.33 in 10.0 mi Variable 4.6 mph - N/A   Overcast
1:53 AM 23.0 °F 18.4 °F 16.0 °F 74% 30.35 in 10.0 mi ENE 3.5 mph - N/A   Overcast
2:53 AM 23.0 °F 18.4 °F 16.0 °F 74% 30.35 in 10.0 mi ENE 3.5 mph - N/A   Overcast
3:53 AM 23.0 °F 18.4 °F 16.0 °F 74% 30.35 in 10.0 mi East 3.5 mph - N/A   Overcast
4:53 AM 21.9 °F 14.5 °F 16.0 °F 78% 30.35 in 10.0 mi NE 5.8 mph - N/A   Overcast
5:53 AM 21.9 °F 15.7 °F 15.1 °F 75% 30.37 in 10.0 mi ENE 4.6 mph - N/A   Overcast
6:53 AM 21.9 °F 15.7 °F 15.1 °F 75% 30.38 in 10.0 mi NE 4.6 mph - N/A   Overcast
7:53 AM 21.9 °F 15.7 °F 15.1 °F 75% 30.37 in 10.0 mi ENE 4.6 mph - N/A   Overcast
8:53 AM 21.9 °F 15.7 °F 16.0 °F 78% 30.37 in 10.0 mi East 4.6 mph - N/A   Overcast
9:53 AM 23.0 °F 15.8 °F 16.0 °F 74% 30.38 in 10.0 mi East 5.8 mph - N/A   Overcast
10:53 AM 23.0 °F 13.1 °F 17.1 °F 78% 30.36 in 10.0 mi East 9.2 mph - N/A   Overcast
11:53 AM 24.1 °F - 17.1 °F 75% 30.39 in 10.0 mi Calm Calm - N/A   Overcast
1:53 PM 26.1 °F 16.8 °F 17.1 °F 69% 30.32 in 10.0 mi East 9.2 mph - N/A   Overcast
2:53 PM 26.1 °F 15.6 °F 17.1 °F 69% 30.26 in 10.0 mi East 11.5 mph 18.4 mph N/A   Overcast
3:53 PM 26.1 °F 16.2 °F 18.0 °F 71% 30.28 in 10.0 mi East 10.4 mph - N/A   Mostly Cloudy
4:45 PM 26.6 °F 16.8 °F 17.6 °F 69% 30.25 in 10.0 mi East 10.4 mph - N/A   Scattered Clouds
4:53 PM 26.1 °F 15.0 °F 18.0 °F 71% 30.27 in 10.0 mi East 12.7 mph - N/A   Partly Cloudy
5:35 PM 26.6 °F 17.5 °F 17.6 °F 69% 30.25 in 10.0 mi ESE 9.2 mph - N/A   Mostly Cloudy
5:53 PM 26.1 °F 16.2 °F 18.0 °F 71% 30.29 in 10.0 mi ESE 10.4 mph - N/A   Overcast
6:53 PM 26.1 °F 15.0 °F 18.0 °F 71% 30.26 in 10.0 mi East 12.7 mph 19.6 mph N/A   Overcast
7:53 PM 26.1 °F 15.6 °F 18.0 °F 71% 30.24 in 10.0 mi East 11.5 mph - N/A   Overcast
8:53 PM 26.1 °F 14.5 °F 18.0 °F 71% 30.20 in 10.0 mi East 13.8 mph 25.3 mph N/A   Mostly Cloudy
10:01 PM 26.6 °F 15.2 °F 17.6 °F 69% 30.15 in 10.0 mi ESE 13.8 mph - N/A   Mostly Cloudy
11:53 PM 23.0 °F 8.0 °F 15.1 °F 72% 30.11 in 5.0 mi ESE 20.7 mph 33.4 mph N/A   Haze